User: anonymous   Login
Location: ActonStarParty
(42.4766°N, 71.4538°W)
Time: 18:22:18
(UTC-04:00)
Language:

ATLAS 5 CENTAUR R/B - Orbit

View from above orbital plane
View from above orbital plane
View from above satellite
View from above satellite

Ground track
Ground track

The orbit data is extracted from the following two-line orbital elements,

1 32379U 07060B   17206.02951184 0.00001477  00000-0  28951-3 0    03
2 32379  60.8671 120.9566 5131887 315.1182  13.3093  5.39062102    04
Epoch (UTC): 25 July 2017 00:42:29
Eccentricity: 0.5131887
inclination: 60.8671°
perigee height: 310 km
apogee height: 14412 km
right ascension of ascending node: 120.9566°
argument of perigee: 315.1182°
revolutions per day: 5.39062102
mean anomaly at epoch: 13.3093°
orbit number at epoch: 0

The dashed part of the orbit path shows where the satellite is in the earth's shadow,  

DLR